Date,TemperatureHighF,TemperatureAvgF,TemperatureLowF,DewpointHighF,DewpointAvgF,DewpointLowF,HumidityHigh,HumidityAvg,HumidityLow,PressureMaxIn,PressureMinIn,WindSpeedMaxMPH,WindSpeedAvgMPH,GustSpeedMaxMPH,PrecipitationSumIn
2013-2-14,35,33,30,5,3,0,28,28,28,29.70,29.53,13,8,13,0.00
2013-2-15,33,26,21,3,-2,-7,29,28,28,30.00,29.66,8,5,8,0.00
2013-2-16,34,21,14,4,-7,-14,28,28,28,29.99,29.80,7,2,7,0.00
2013-2-17,28,16,6,-1,-11,-20,28,28,28,30.09,29.88,8,3,8,0.00
2013-2-18,82,31,12,46,2,-15,28,28,28,30.08,29.36,12,7,12,0.00
2013-2-19,44,29,17,13,0,-10,28,28,28,29.74,29.15,17,11,17,0.00
2013-2-20,24,19,15,-4,-8,-12,28,28,28,30.13,29.71,10,7,10,0.00
2013-2-21,28,20,15,-1,-8,-12,28,28,28,30.29,30.08,12,6,12,0.00
2013-2-22,35,27,21,5,-2,-7,28,28,28,30.16,29.66,12,7,12,0.00
2013-2-23,38,31,25,8,1,-4,28,28,28,29.77,29.65,10,6,10,0.00
2013-2-24,42,29,21,11,0,-7,30,28,28,30.03,29.70,7,3,7,0.00
2013-2-25,51,29,15,18,0,-12,28,28,28,30.13,29.93,5,2,5,0.00
2013-2-26,38,30,21,8,1,-7,28,28,28,30.01,29.37,12,7,12,0.00
2013-2-27,38,34,32,8,4,2,28,28,28,29.43,29.28,8,3,8,0.00
2013-2-28,34,31,27,4,2,-2,28,28,28,29.85,29.35,9,6,9,0.00
2013-3-1,28,24,21,-2,-4,-7,28,28,28,30.01,29.81,11,6,11,0.00
2013-3-2,27,23,19,-2,-5,-9,28,28,28,29.98,29.89,7,4,7,0.00
2013-3-3,31,23,15,2,-5,-12,28,28,28,29.95,29.82,7,3,7,0.00
2013-3-4,41,24,12,11,-4,-15,28,28,28,30.04,29.87,6,2,6,0.00
2013-3-5,42,26,14,11,-2,-14,28,28,28,30.02,29.68,13,6,13,0.00
2013-3-6,43,32,23,12,2,-6,28,28,28,30.10,29.72,13,4,13,0.00
2013-3-7,36,31,23,6,2,-6,29,28,28,30.29,30.03,7,2,7,0.00
2013-3-8,53,32,17,21,3,-10,29,28,28,30.42,30.23,6,2,6,0.00
2013-3-9,52,36,21,20,6,-7,28,28,28,30.33,29.87,9,4,9,0.00
2013-3-10,59,47,37,26,16,7,29,28,28,29.91,29.61,9,4,9,0.00
2013-3-11,53,48,36,24,18,10,35,31,29,29.66,29.28,11,7,11,0.00
2013-3-12,40,34,30,13,7,3,34,32,31,29.77,29.48,10,7,10,0.00
2013-3-13,35,28,23,6,0,-5,32,30,28,30.09,29.69,10,6,10,0.00
2013-3-14,44,31,21,13,2,-7,31,29,28,30.16,29.90,7,4,7,0.00
2013-3-15,39,34,29,9,4,0,29,28,28,29.95,29.70,8,5,8,0.00
2013-3-24,30,29,29,1,0,0,28,28,28,29.60,29.50,13,10,13,0.00
2013-3-25,39,33,29,8,4,0,28,28,28,29.80,29.44,15,9,15,0.00
2013-3-26,47,36,31,16,6,2,28,28,28,29.99,29.77,7,4,7,0.00
2013-3-27,51,38,28,19,8,-1,33,29,28,30.09,29.93,9,4,9,0.00
2013-3-28,53,40,31,38,15,2,61,36,28,30.19,30.03,7,3,7,0.00
2013-3-29,58,41,27,26,13,0,43,32,28,30.21,30.08,7,3,7,0.00
2013-6-3,74,72,70,54,53,52,51,51,51,30.00,29.97,5,2,5,0.00